Wrangell, AK

4:40 AM AKDT on September 25, 2017 (GMT -0800)
Wrangell

Weather History for PAWG - April, 2013

Change the Weather History Date:

Wednesday, April 24, 2013

  Actual Average Record
Temperature  
Mean Temperature 44 °F -  
Max Temperature 46 °F 52 °F 70 °F (1983)
Min Temperature 41 °F 36 °F 24 °F (1971)
Degree Days  
Heating Degree Days 22    
Moisture  
Dew Point 38 °F    
Average Humidity 79    
Maximum Humidity 87    
Minimum Humidity 66    
Precipitation  
Precipitation 0.28 in - - ()
Sea Level Pressure  
Sea Level Pressure 30.21 in    
Wind  
Wind Speed 3 mph (South)    
Max Wind Speed 12 mph    
Max Gust Speed 22 mph    
Visibility 8 miles    
Events      
Averages and records for this station are not official NWS values.
T = Trace of Precipitation, MM = Missing Value Source: NWS Daily Summary

Daily Weather History Graph

Daily Weather History Graph

Search for Another Location

Airport or City:

Trip Planner

Search our weather history database for the weather conditions in past years. The results will help you decide how hot, cold, wet, or windy it might be!

Date:

Astronomy

Apr. 24, 2013 Rise Set
Actual Time 5:19 AM AKDT 8:17 PM AKDT
Civil Twilight 4:35 AM AKDT 9:00 PM AKDT
Nautical Twilight 3:38 AM AKDT 9:59 PM AKDT
Astronomical Twilight 2:18 AM AKDT 11:21 PM AKDT
Moon 7:24 PM AKDT (4/24) 4:39 AM AKDT (4/24)
Length of Visible Light 16h 24m
Length of Day
14h 58m
Waxing Gibbous, 99% of the Moon is Illuminated
Apr 24
Waxing Gibbous
Apr 25
Full
May 2
Last Quarter
May 9
New
May 17
First Quarter

Hourly Weather History & Observations

Time (AKDT) Temp. Windchill Dew Point Humidity Pressure Visibility Wind Dir Wind Speed Gust Speed Precip Events Conditions
12:16 AM 44.6 °F - 33.8 °F 66% 30.47 in 10.0 mi Calm Calm - N/A   Overcast
12:36 AM 44.6 °F 42.2 °F 33.8 °F 66% 30.46 in 10.0 mi SE 4.6 mph - N/A   Overcast
12:56 AM 44.6 °F 43.1 °F 33.8 °F 66% 30.46 in 10.0 mi SE 3.5 mph - N/A   Overcast
1:16 AM 44.6 °F 43.1 °F 33.8 °F 66% 30.45 in 10.0 mi South 3.5 mph - N/A   Overcast
1:36 AM 44.6 °F - 33.8 °F 66% 30.45 in 10.0 mi Calm Calm - N/A   Overcast
1:56 AM 44.6 °F - 33.8 °F 66% 30.44 in 10.0 mi Calm Calm - N/A   Overcast
2:16 AM 42.8 °F 41.1 °F 35.6 °F 76% 30.44 in 4.0 mi ESE 3.5 mph - N/A   Overcast
2:36 AM 42.8 °F 41.1 °F 33.8 °F 70% 30.43 in 10.0 mi ESE 3.5 mph - N/A   Overcast
2:56 AM 42.8 °F 40.1 °F 35.6 °F 76% 30.42 in 10.0 mi SSE 4.6 mph - N/A   Overcast
3:16 AM 42.8 °F 39.3 °F 35.6 °F 76% 30.41 in 10.0 mi SE 5.8 mph - N/A   Overcast
3:36 AM 42.8 °F 40.1 °F 33.8 °F 70% 30.40 in 10.0 mi ESE 4.6 mph - N/A   Overcast
3:56 AM 42.8 °F 39.3 °F 35.6 °F 76% 30.39 in 10.0 mi SE 5.8 mph - N/A   Overcast
4:16 AM 42.8 °F 39.3 °F 35.6 °F 76% 30.39 in 10.0 mi SE 5.8 mph - N/A   Overcast
4:36 AM 42.8 °F 40.1 °F 35.6 °F 76% 30.39 in 10.0 mi SE 4.6 mph - N/A   Overcast
4:56 AM 42.8 °F 41.1 °F 35.6 °F 76% 30.39 in 9.0 mi SE 3.5 mph - N/A   Overcast
5:16 AM 42.8 °F - 35.6 °F 76% 30.38 in 7.0 mi Calm Calm - N/A   Overcast
5:36 AM 42.8 °F - 35.6 °F 76% 30.37 in 10.0 mi Calm Calm - N/A   Overcast
5:56 AM 42.8 °F - 35.6 °F 76% 30.37 in 7.0 mi Calm Calm - N/A   Overcast
6:16 AM 41.0 °F 39.0 °F 35.6 °F 81% 30.36 in 7.0 mi SSE 3.5 mph - 0.01 in   Overcast
6:36 AM 41.0 °F 37.1 °F 37.4 °F 87% 30.35 in 7.0 mi East 5.8 mph - 0.04 in   Overcast
6:56 AM 41.0 °F 37.1 °F 37.4 °F 87% 30.34 in 7.0 mi ENE 5.8 mph - 0.05 in   Overcast
7:16 AM 41.0 °F 39.0 °F 35.6 °F 81% 30.33 in 7.0 mi West 3.5 mph - 0.02 in   Overcast
7:36 AM 41.0 °F - 37.4 °F 87% 30.32 in 7.0 mi Calm Calm - 0.03 in   Overcast
7:56 AM 41.0 °F 35.2 °F 37.4 °F 87% 30.31 in 4.0 mi West 9.2 mph - 0.04 in   Overcast
8:16 AM 41.0 °F 38.0 °F 37.4 °F 87% 30.31 in 4.0 mi NW 4.6 mph - N/A   Overcast
8:36 AM 42.8 °F 40.1 °F 37.4 °F 81% 30.31 in 4.0 mi West 4.6 mph - 0.01 in   Overcast
8:56 AM 42.8 °F 41.1 °F 37.4 °F 81% 30.29 in 4.0 mi NNW 3.5 mph - 0.01 in   Overcast
9:16 AM 42.8 °F 40.1 °F 37.4 °F 81% 30.29 in 4.0 mi NNW 4.6 mph - N/A   Overcast
9:36 AM 42.8 °F - 39.2 °F 87% 30.28 in 4.0 mi Calm Calm - N/A   Overcast
9:56 AM 42.8 °F - 37.4 °F 81% 30.28 in 3.0 mi Calm Calm - 0.01 in   Overcast
10:16 AM 42.8 °F 41.1 °F 37.4 °F 81% 30.28 in 3.0 mi NNW 3.5 mph - N/A   Overcast
10:36 AM 42.8 °F - 39.2 °F 87% 30.26 in 3.0 mi Calm Calm - 0.01 in   Overcast
10:56 AM 42.8 °F 41.1 °F 39.2 °F 87% 30.26 in 7.0 mi WSW 3.5 mph - 0.01 in   Overcast
11:16 AM 44.6 °F - 39.2 °F 81% 30.25 in 7.0 mi Calm Calm - N/A   Overcast
11:36 AM 44.6 °F - 39.2 °F 81% 30.24 in 7.0 mi Calm Calm - N/A   Overcast
11:56 AM 44.6 °F 42.2 °F 39.2 °F 81% 30.23 in 7.0 mi WNW 4.6 mph - N/A   Overcast
12:16 PM 44.6 °F 42.2 °F 39.2 °F 81% 30.22 in 7.0 mi NW 4.6 mph - N/A   Overcast
12:36 PM 44.6 °F 42.2 °F 39.2 °F 81% 30.21 in 7.0 mi WNW 4.6 mph - N/A   Overcast
12:56 PM 44.6 °F 42.2 °F 39.2 °F 81% 30.21 in 7.0 mi NW 4.6 mph - N/A   Overcast
1:16 PM 44.6 °F - 39.2 °F 81% 30.20 in 7.0 mi Calm Calm - N/A   Overcast
1:36 PM 44.6 °F 43.1 °F 39.2 °F 81% 30.19 in 7.0 mi NW 3.5 mph - N/A   Overcast
1:56 PM 44.6 °F - 39.2 °F 81% 30.18 in 7.0 mi Calm Calm - N/A   Overcast
2:16 PM 44.6 °F - 39.2 °F 81% 30.17 in 7.0 mi Calm Calm - N/A   Overcast
2:36 PM 44.6 °F 42.2 °F 39.2 °F 81% 30.15 in 7.0 mi West 4.6 mph - N/A   Overcast
2:56 PM 44.6 °F 43.1 °F 41.0 °F 87% 30.15 in 7.0 mi West 3.5 mph - N/A   Overcast
3:16 PM 46.4 °F 44.3 °F 41.0 °F 81% 30.14 in 7.0 mi ESE 4.6 mph - N/A   Overcast
3:36 PM 46.4 °F - 41.0 °F 81% 30.13 in 7.0 mi Calm Calm - N/A   Overcast
3:56 PM 46.4 °F 44.3 °F 41.0 °F 81% 30.12 in 7.0 mi East 4.6 mph - N/A   Overcast
4:16 PM 46.4 °F - 42.8 °F 87% 30.11 in 7.0 mi Calm Calm - N/A   Overcast
4:36 PM 46.4 °F 44.3 °F 42.8 °F 87% 30.10 in 7.0 mi SW 4.6 mph - N/A   Overcast
4:56 PM 46.4 °F 45.2 °F 42.8 °F 87% 30.09 in 7.0 mi NE 3.5 mph - N/A   Overcast
5:16 PM 46.4 °F 45.2 °F 42.8 °F 87% 30.08 in 7.0 mi ENE 3.5 mph - N/A   Overcast
5:36 PM 46.4 °F - 42.8 °F 87% 30.06 in 7.0 mi Calm Calm - 0.01 in   Overcast
5:56 PM 46.4 °F 44.3 °F 39.2 °F 76% 30.05 in 7.0 mi SW 4.6 mph - 0.02 in   Overcast
6:56 PM 46.4 °F 44.3 °F 39.2 °F 76% 30.02 in 7.0 mi SSW 4.6 mph - 0.02 in   Overcast
7:16 PM 46.4 °F - 41.0 °F 81% 30.01 in 10.0 mi Calm Calm - N/A   Overcast
7:36 PM 46.4 °F 41.9 °F 39.2 °F 76% 30.01 in 7.0 mi SSW 9.2 mph 19.6 mph N/A   Overcast
7:56 PM 44.6 °F 38.8 °F 37.4 °F 76% 30.00 in 7.0 mi SSW 11.5 mph 20.7 mph N/A   Overcast
8:16 PM 44.6 °F 39.2 °F 37.4 °F 76% 30.00 in 10.0 mi SW 10.4 mph - N/A   Overcast
8:36 PM 44.6 °F 38.8 °F 39.2 °F 81% 29.99 in 10.0 mi SW 11.5 mph 16.1 mph N/A   Overcast
8:56 PM 44.6 °F 40.2 °F 37.4 °F 76% 29.99 in 10.0 mi SSW 8.1 mph 21.9 mph N/A   Overcast
9:16 PM 44.6 °F 39.7 °F 37.4 °F 76% 29.99 in 10.0 mi South 9.2 mph - N/A   Overcast
9:36 PM 44.6 °F 41.4 °F 39.2 °F 81% 29.98 in 10.0 mi SSE 5.8 mph - N/A   Overcast
9:56 PM 44.6 °F 41.4 °F 39.2 °F 81% 29.97 in 10.0 mi SE 5.8 mph - 0.01 in   Unknown
10:16 PM 44.6 °F 43.1 °F 39.2 °F 81% 29.96 in 10.0 mi South 3.5 mph - N/A   Unknown
10:36 PM 44.6 °F 43.1 °F 39.2 °F 81% 29.95 in 10.0 mi SSE 3.5 mph - N/A   Unknown
10:56 PM 44.6 °F 41.4 °F 39.2 °F 81% 29.94 in 10.0 mi SE 5.8 mph - N/A   Unknown
11:16 PM 44.6 °F 41.4 °F 39.2 °F 81% 29.93 in 10.0 mi ESE 5.8 mph 17.3 mph 0.01 in   Overcast
11:36 PM 44.6 °F 41.4 °F 39.2 °F 81% 29.93 in 8.0 mi ESE 5.8 mph - 0.05 in   Overcast
11:56 PM 44.6 °F - 39.2 °F 81% 29.92 in 8.0 mi Calm Calm - 0.11 in   Overcast